This is the latest recevied weather packets stored in our database for station/object OK1TBF-15. If no packets are shown the sender has not sent any weather packets the latest 1 day(s).
| Time | Temp. | Humidity | Pressure | Rain* | Wind** | Luminosity | Snow |
|---|---|---|---|---|---|---|---|
| 1778044579 | 12.78° C | 83% | 1007.6 hPa | - | - | - | - |
| 1778043979 | 12.22° C | 83% | 1007.6 hPa | - | - | - | - |
| 1778043379 | 12.22° C | 83% | 1007.8 hPa | - | - | - | - |
| 1778042779 | 12.22° C | 84% | 1007.6 hPa | - | - | - | - |
| 1778040377 | 11.11° C | 83% | 1007 hPa | - | - | - | - |
| 1778039777 | 11.67° C | 83% | 1006.9 hPa | - | - | - | - |
| 1778037977 | 11.67° C | 84% | 1007 hPa | - | - | - | - |
| 1778037377 | 11.67° C | 82% | 1006.9 hPa | - | - | - | - |
| 1778036777 | 11.67° C | 81% | 1006.6 hPa | - | - | - | - |
| 1778036177 | 12.22° C | 80% | 1006.5 hPa | - | - | - | - |
| 1778035577 | 12.22° C | 80% | 1006.4 hPa | - | - | - | - |
| 1778034377 | 12.22° C | 78% | 1006.3 hPa | - | - | - | - |
| 1778033777 | 12.22° C | 78% | 1006.3 hPa | - | - | - | - |
| 1778033177 | 12.78° C | 78% | 1006.5 hPa | - | - | - | - |
| 1778032577 | 12.78° C | 76% | 1006.5 hPa | - | - | - | - |
| 1778031977 | 12.78° C | 74% | 1006.4 hPa | - | - | - | - |
| 1778031377 | 12.78° C | 70% | 1006.4 hPa | - | - | - | - |
| 1778030777 | 12.78° C | 68% | 1006.3 hPa | - | - | - | - |
| 1778029577 | 13.89° C | 62% | 1006.1 hPa | - | - | - | - |
| 1778028977 | 13.89° C | 58% | 1006.1 hPa | - | - | - | - |
| 1778028377 | 13.33° C | 58% | 1006.2 hPa | - | - | - | - |
| 1778027177 | 13.89° C | 57% | 1006.1 hPa | - | - | - | - |
| 1778026577 | 13.89° C | 55% | 1006.2 hPa | - | - | - | - |
* Rain since midnight (hover to see other rain measurements)
** Current wind speed in m/s (hover to see current wind gust speed)